,

(GMT )
Resia Pass

Weather History for LIVE - March, 2014

Change the Weather History Date:

Thursday, March 13, 2014

  Actual Average Record
Temperature  
Mean Temperature 40 °F -  
Max Temperature 53 °F 45 °F 60 °F (2007)
Min Temperature 28 °F 25 °F 5 °F (2006)
Degree Days  
Heating Degree Days 24    
Moisture  
Dew Point 26 °F    
Average Humidity 65    
Maximum Humidity 87    
Minimum Humidity 28    
Precipitation  
Precipitation 0.00 in - - ()
Sea Level Pressure  
Sea Level Pressure 30.36 in    
Wind  
Wind Speed 4 mph ()    
Max Wind Speed 8 mph    
Max Gust Speed -    
Averages and records for this station are not official NWS values.
T = Trace of Precipitation, MM = Missing Value Source: Averaged Metar Reports

Daily Weather History Graph

Daily Weather History Graph

Search for Another Location

Airport or City:

Trip Planner

Search our weather history database for the weather conditions in past years. The results will help you decide how hot, cold, wet, or windy it might be!

Date:

Astronomy

Mar. 13, 2014 Rise Set
Actual Time 6:35 AM CET 6:20 PM CET
Civil Twilight 6:05 AM CET 6:50 PM CET
Nautical Twilight 5:29 AM CET 7:26 PM CET
Astronomical Twilight 4:54 AM CET 8:02 PM CET
Moon 3:22 PM CET (3/13) 4:42 AM CET (3/13)
Length of Visible Light 12h 45m
Length of Day
11h 45m
Waxing Gibbous, 90% of the Moon is Illuminated
Mar 13
Waxing Gibbous
Mar 16
Full
Mar 24
Last Quarter
Mar 30
New
Apr 7
First Quarter

Hourly Weather History & Observations

Time (CET) Temp. Windchill Dew Point Humidity Pressure Visibility Wind Dir Wind Speed Gust Speed Precip Events Conditions
12:55 AM 33.8 °F 28.6 °F 26.6 °F 75% 30.42 in - NNE 5.8 mph - N/A   Clear
1:55 AM 30.2 °F 24.3 °F 24.8 °F 80% 30.42 in - North 5.8 mph - N/A   Clear
2:55 AM 30.2 °F 24.3 °F 24.8 °F 80% 30.42 in - NNE 5.8 mph - N/A   Clear
4:55 AM 28.4 °F 21.2 °F 24.8 °F 86% 30.39 in - North 6.9 mph - N/A   Clear
5:55 AM 28.4 °F 20.4 °F 24.8 °F 86% 30.39 in - NNE 8.1 mph - N/A   Clear
6:55 AM 28.4 °F 22.2 °F 24.8 °F 86% 30.39 in - North 5.8 mph - N/A   Clear
7:55 AM 28.4 °F 21.2 °F 24.8 °F 86% 30.39 in - North 6.9 mph - N/A   Clear
8:55 AM 30.2 °F 24.3 °F 24.8 °F 80% 30.39 in - NNE 5.8 mph - N/A   Clear
9:55 AM 35.6 °F 31.7 °F 26.6 °F 70% 30.39 in - North 4.6 mph - N/A   Clear
10:55 AM 41.0 °F 38.0 °F 24.8 °F 53% 30.39 in - North 4.6 mph - N/A   Clear
11:55 AM 50.0 °F - 19.4 °F 30% 30.39 in - Calm Calm - N/A   Clear
12:55 PM 50.0 °F - 17.6 °F 28% 30.39 in - SW 2.3 mph - N/A   Clear
1:55 PM 53.6 °F - 23.0 °F 30% 30.36 in - SW 2.3 mph - N/A   Clear
2:55 PM 53.6 °F - 23.0 °F 30% 30.33 in - SSW 2.3 mph - N/A   Clear
3:55 PM 50.0 °F - 24.8 °F 37% 30.33 in - SSW 2.3 mph - N/A   Clear
4:55 PM 50.0 °F - 26.6 °F 40% 30.30 in - South 2.3 mph - N/A   Clear
5:55 PM 42.8 °F - 28.4 °F 57% 30.27 in - Calm Calm - N/A   Clear
6:55 PM 39.2 °F - 30.2 °F 70% 30.30 in - Calm Calm - N/A   Clear
7:55 PM 37.4 °F - 28.4 °F 70% 30.30 in - Calm Calm - N/A   Clear
8:55 PM 35.6 °F 31.7 °F 30.2 °F 81% 30.33 in - North 4.6 mph - N/A   Clear
9:55 PM 35.6 °F 30.7 °F 30.2 °F 81% 30.33 in - North 5.8 mph - N/A   Clear
10:55 PM 33.8 °F 27.7 °F 30.2 °F 87% 30.33 in - North 6.9 mph - N/A   Clear
11:55 PM 33.8 °F 29.6 °F 28.4 °F 81% 30.33 in - NNE 4.6 mph - N/A   Clear